Flag for U.S.A. Weather past 2 weeks in Charlottesville, Virginia, U.S.A.

Now
61 °F

Mostly cloudy.


Feels Like: 61 °F
Forecast: 58 / 70 °F
Wind: 3 mph from Northeast

Location: Charlottesville-Albemarle Airport

Current Time: Sep 19, 2014 at 6:23:09 AM

Latest Report: Sep 19, 2014 at 5:53 AM


Visibility: 9 mi

Pressure: 30.16 "Hg

Humidity: 83%

Dew point: 56 °F

Location of CharlottesvilleLocation

Historic Weather in Charlottesville — Graph

°F

Charlottesville temperature yesterday

Maximum temperature yesterday: 75 °F (at 1:53 PM)
Minimum temperature yesterday: 55 °F (at 2:53 AM)
Average temperature yesterday: 64 °F

Past Weeks' High & Low Weather Summary

 TemperatureHumidityPressure
High122 °F (Sep 10, 9:14 AM)97% (Sep 5, 8:00 AM)30.33 "Hg (Sep 5, 8:00 AM)
Low50 °F (Sep 14, 5:53 AM)7% (Sep 10, 9:14 AM)29.86 "Hg (Sep 11, 3:53 PM)
Average70 °F75%30.08 "Hg
* Reported Sep 4 4:53 AM — Sep 19 4:53 AM, Charlottesville, Weather by CustomWeather, © 2014

Note: Actual official high and low records may vary slightly from our data, if they occured in-between our weather recording intervals... More about our weather records

Advertising

Charlottesville weather history for previous 24 hours

 ConditionsComfort  
Time TempWeatherWind HumidityBarometerVisibility
4:53 AM
Sep 19
60 °FPassing clouds.3 mph86%30.13 "Hg9 mi
3:53 AM61 °FMostly cloudy.7 mph87%30.12 "Hg10 mi
2:53 AM62 °FMostly cloudy.5 mph83%30.12 "Hg10 mi
1:53 AM61 °FPartly cloudy.No wind93%30.11 "Hg7 mi
12:53 AM62 °FPassing clouds.No wind90%30.09 "Hg10 mi
11:53 PM
Sep 18
63 °FMostly cloudy.No wind90%30.09 "Hg9 mi
10:53 PM64 °FOvercast.No wind87%30.08 "Hg10 mi
9:53 PM64 °FMostly cloudy.No wind90%30.07 "Hg10 mi
8:53 PM65 °FOvercast.3 mph91%30.05 "Hg9 mi
7:53 PM66 °FOvercast.No wind87%30.03 "Hg10 mi
6:53 PM70 °FOvercast.No wind73%30.01 "Hg10 mi
5:53 PM72 °FOvercast.5 mph64%29.99 "Hg10 mi
4:53 PM72 °FOvercast.3 mph66%29.99 "Hg10 mi
3:53 PM69 °FMostly cloudy.5 mph73%29.99 "Hg10 mi
2:53 PM72 °FMostly cloudy.7 mph59%29.99 "Hg10 mi
1:53 PM75 °FPartly sunny.8 mph58%29.99 "Hg10 mi
12:53 PM74 °FOvercast.No wind56%29.99 "Hg10 mi
11:53 AM73 °FPassing clouds.No wind62%30.00 "Hg10 mi
10:53 AM66 °FPartly sunny.No wind75%30.01 "Hg10 mi
9:53 AM63 °FPartly sunny.3 mph78%30.01 "Hg10 mi
8:53 AM59 °FScattered clouds.3 mph87%29.99 "Hg10 mi
7:53 AM56 °FPassing clouds.No wind93%29.99 "Hg8 mi
6:53 AM55 °FPartly cloudy.No wind93%29.98 "Hg10 mi
Weather by CustomWeather, © 2014

See weather overviewHow to use our weather pages